Location: Newark
(46.7000°N, 60.6000°W)
Time: 21:07:48
(UTC+00:00)

Vanguard 1 Rocket - Pass Details

Date: 03 November 2020
Orbit: 656 x 4221 km, 34.3° (Epoch: 30 November)

Event Time Altitude Azimuth Distance (km) Brightness Sun altitude
Rises 14:28:59 0° 247° (WSW) 3,732 10.6 25.6°
Reaches altitude 10° 14:32:35 10° 230° (SW) 2,420 9.9 25.8°
Maximum altitude 14:36:20 20° 184° (S) 1,603 10.3 26.0°
Drops below altitude 10° 14:39:35 10° 136° (SE) 2,059 10.5 26.2°
Sets 14:42:21 0° 118° (ESE) 2,992 10.7 26.3°
